Location: Bregenz
(47.5012°N, 9.7411°E)
Time: 02:26:46
(UTC+01:00)

ISS - Visible Passes

Search period start: 08 December 2021 00:00
Search period end: 18 December 2021 00:00
Orbit: 417 x 422 km, 51.6° (Epoch: 07 December)

Date Brightness Start Highest point End Pass type
(mag) Time Alt. Az. Time Alt. Az. Time Alt. Az.
08 Dec -1.0 18:04:29 10° W 18:07:00 19° SW 18:09:30 10° S visible
09 Dec -1.5 17:16:45 10° W 17:19:45 29° SW 17:22:44 10° SSE visible
11 Dec -0.3 17:19:53 10° WSW 17:21:23 12° SW 17:22:54 10° SSW visible
